DLH73H LFKB-EDDF

Flight info

Callsign DLH73H
Flight time 1h 21m
Altitude 19000
Route MOULE L146 ELB/N0450F360 DCT GOVGO DCT LEGLO DCT ABREG/N0445F340 DCT LADOL T163 EMPAX EMPAX5D
Aircraft A321/M-SDE3FGHIRWY/LB1

Departure

Time 2026-04-18 05:12
Airport Bastia-Poretta International airport (LFKB)

Arrival

Time 2026-04-18 06:34
Airport Frankfurt Main Airport (EDDF)
Time Latitude Longitude Altitude Speed Heading
2026-04-18 04:57 42.54776 9.48201 36 ft 0 kts 281°
2026-04-18 05:03 42.54774 9.48218 36 ft 2 kts 281°
2026-04-18 05:03 42.54771 9.48238 36 ft 2 kts 281°
2026-04-18 05:04 42.54768 9.48258 36 ft 2 kts 281°
2026-04-18 05:04 42.54765 9.48278 36 ft 2 kts 281°
2026-04-18 05:04 42.54759 9.48297 35 ft 2 kts 307°
2026-04-18 05:04 42.54749 9.48311 36 ft 2 kts 327°
2026-04-18 05:05 42.54739 9.48317 36 ft 0 kts 340°
2026-04-18 05:05 42.54733 9.48320 35 ft 0 kts 342°
2026-04-18 05:06 42.54744 9.48316 36 ft 4 kts 342°
2026-04-18 05:07 42.54802 9.48292 36 ft 13 kts 342°
2026-04-18 05:07 42.54899 9.48252 35 ft 15 kts 343°
2026-04-18 05:07 42.55001 9.48231 35 ft 15 kts 345°
2026-04-18 05:07 42.55106 9.48187 34 ft 17 kts 342°
2026-04-18 05:08 42.55240 9.48132 33 ft 23 kts 342°
2026-04-18 05:08 42.55397 9.48062 32 ft 23 kts 341°
2026-04-18 05:08 42.55557 9.47997 30 ft 24 kts 343°
2026-04-18 05:08 42.55719 9.47928 28 ft 24 kts 341°
2026-04-18 05:09 42.55841 9.47877 26 ft 13 kts 343°
2026-04-18 05:09 42.55928 9.47888 26 ft 13 kts 45°
2026-04-18 05:09 42.55967 9.48012 25 ft 14 kts 68°
2026-04-18 05:09 42.56057 9.48050 25 ft 15 kts 343°
2026-04-18 05:10 42.56159 9.48002 23 ft 11 kts 340°
2026-04-18 05:10 42.56227 9.47966 22 ft 10 kts 322°
2026-04-18 05:10 42.56273 9.47902 22 ft 5 kts 313°
2026-04-18 05:10 42.56314 9.47890 22 ft 7 kts 21°
2026-04-18 05:11 42.56328 9.47926 22 ft 4 kts 115°
2026-04-18 05:11 42.56308 9.47939 22 ft 3 kts 171°
2026-04-18 05:11 42.56297 9.47943 22 ft 0 kts 162°
2026-04-18 05:12 42.56236 9.47968 22 ft 36 kts 163°
2026-04-18 05:12 42.55753 9.48168 28 ft 107 kts 162°
2026-04-18 05:12 42.54840 9.48550 94 ft 159 kts 165°
2026-04-18 05:12 42.53780 9.48977 695 ft 162 kts 161°
2026-04-18 05:13 42.52872 9.49804 1299 ft 162 kts 116°
2026-04-18 05:13 42.52807 9.51216 1854 ft 154 kts 64°
2026-04-18 05:13 42.53417 9.52453 2145 ft 164 kts 52°
2026-04-18 05:13 42.54106 9.53759 2420 ft 177 kts 55°
2026-04-18 05:14 42.54785 9.55219 2704 ft 192 kts 58°
2026-04-18 05:14 42.55463 9.56836 2999 ft 207 kts 60°
2026-04-18 05:14 42.56182 9.58667 3236 ft 228 kts 61°
2026-04-18 05:14 42.56927 9.60646 3591 ft 246 kts 62°
2026-04-18 05:15 42.57702 9.62744 4164 ft 255 kts 62°
2026-04-18 05:15 42.58488 9.64900 4921 ft 258 kts 62°
2026-04-18 05:15 42.59282 9.67086 5688 ft 261 kts 62°
2026-04-18 05:15 42.60080 9.69290 6446 ft 264 kts 62°
2026-04-18 05:16 42.60891 9.71531 7227 ft 268 kts 62°
2026-04-18 05:16 42.61683 9.73803 8011 ft 271 kts 65°
2026-04-18 05:16 42.62326 9.76213 8800 ft 275 kts 71°
2026-04-18 05:16 42.62799 9.78702 9546 ft 279 kts 75°
2026-04-18 05:17 42.63242 9.81283 10269 ft 282 kts 75°
2026-04-18 05:17 42.63687 9.83915 10767 ft 295 kts 75°
2026-04-18 05:17 42.64160 9.86696 11090 ft 312 kts 75°
2026-04-18 05:17 42.64665 9.89641 11396 ft 329 kts 75°
2026-04-18 05:18 42.65192 9.92713 11746 ft 344 kts 75°
2026-04-18 05:18 42.65740 9.95924 12056 ft 358 kts 75°
2026-04-18 05:18 42.66307 9.99255 12612 ft 365 kts 75°
2026-04-18 05:18 42.66878 10.02619 13258 ft 368 kts 75°
2026-04-18 05:19 42.67451 10.06010 13884 ft 371 kts 75°
2026-04-18 05:19 42.68024 10.09400 14483 ft 375 kts 75°
2026-04-18 05:19 42.68613 10.12888 15083 ft 378 kts 75°
2026-04-18 05:19 42.69194 10.16339 15657 ft 382 kts 75°
2026-04-18 05:20 42.69791 10.19895 16223 ft 386 kts 75°
2026-04-18 05:20 42.70388 10.23452 16773 ft 390 kts 75°
2026-04-18 05:20 42.70990 10.27045 17323 ft 393 kts 75°
2026-04-18 05:20 42.71630 10.30624 17850 ft 395 kts 70°
2026-04-18 05:21 42.72865 10.33906 18327 ft 394 kts 51°
2026-04-18 05:21 42.74814 10.36482 18849 ft 392 kts 33°
2026-04-18 05:21 42.77276 10.38126 19343 ft 393 kts 16°
2026-04-18 05:21 42.79950 10.38656 19817 ft 394 kts 359°
2026-04-18 05:22 42.82682 10.38345 20332 ft 396 kts 353°
2026-04-18 05:22 42.85441 10.37947 20802 ft 399 kts 353°
2026-04-18 05:22 42.88193 10.37550 21413 ft 398 kts 353°
2026-04-18 05:22 42.90919 10.37164 22008 ft 397 kts 353°
2026-04-18 05:23 42.93675 10.36777 22458 ft 400 kts 353°
2026-04-18 05:23 42.96425 10.36395 22860 ft 403 kts 353°
2026-04-18 05:23 42.99258 10.36003 23274 ft 406 kts 353°
2026-04-18 05:23 43.02040 10.35620 23692 ft 408 kts 353°
2026-04-18 05:24 43.04882 10.35229 24105 ft 411 kts 353°
2026-04-18 05:24 43.07711 10.34839 24511 ft 413 kts 353°
2026-04-18 05:24 43.10577 10.34444 24895 ft 415 kts 354°
2026-04-18 05:24 43.13483 10.34042 25287 ft 417 kts 354°
2026-04-18 05:25 43.16373 10.33639 25661 ft 419 kts 353°
2026-04-18 05:25 43.19270 10.33108 26006 ft 422 kts 351°
2026-04-18 05:25 43.22153 10.32492 26363 ft 424 kts 351°
2026-04-18 05:25 43.25060 10.31851 26706 ft 426 kts 351°
2026-04-18 05:26 43.28016 10.31196 27040 ft 429 kts 351°
2026-04-18 05:26 43.30934 10.30551 27367 ft 431 kts 351°
2026-04-18 05:26 43.33919 10.29891 27694 ft 433 kts 351°
2026-04-18 05:26 43.36879 10.29237 28003 ft 435 kts 351°
2026-04-18 05:27 43.39875 10.28575 28316 ft 436 kts 351°
2026-04-18 05:27 43.42859 10.27915 28702 ft 436 kts 351°
2026-04-18 05:27 43.45826 10.27259 29133 ft 435 kts 351°
2026-04-18 05:27 43.48795 10.26603 29551 ft 434 kts 351°
2026-04-18 05:28 43.51790 10.25940 29967 ft 432 kts 351°
2026-04-18 05:28 43.54741 10.25286 30368 ft 431 kts 351°
2026-04-18 05:28 43.57682 10.24635 30748 ft 430 kts 351°
2026-04-18 05:28 43.60641 10.23978 31151 ft 428 kts 351°
2026-04-18 05:29 43.63575 10.23326 31551 ft 427 kts 351°
2026-04-18 05:29 43.66487 10.22679 31915 ft 426 kts 351°
2026-04-18 05:29 43.69392 10.22032 32257 ft 425 kts 351°
2026-04-18 05:29 43.72315 10.21381 32599 ft 424 kts 351°
2026-04-18 05:30 43.75223 10.20733 32939 ft 423 kts 351°
2026-04-18 05:30 43.78095 10.20092 33289 ft 422 kts 351°
2026-04-18 05:30 43.80992 10.19444 33651 ft 420 kts 351°
2026-04-18 05:30 43.83878 10.18799 33991 ft 418 kts 351°
2026-04-18 05:31 43.86729 10.18161 34309 ft 417 kts 351°
2026-04-18 05:31 43.89578 10.17522 34565 ft 417 kts 351°
2026-04-18 05:31 43.92453 10.16878 34780 ft 417 kts 351°
2026-04-18 05:31 43.95316 10.16234 34976 ft 418 kts 351°
2026-04-18 05:32 43.98182 10.15590 35170 ft 419 kts 351°
2026-04-18 05:32 44.01038 10.14947 35337 ft 420 kts 351°
2026-04-18 05:32 44.03920 10.14298 35500 ft 422 kts 351°
2026-04-18 05:32 44.06817 10.13644 35669 ft 422 kts 351°
2026-04-18 05:33 44.09708 10.12992 35865 ft 422 kts 351°
2026-04-18 05:33 44.12638 10.12331 36045 ft 423 kts 351°
2026-04-18 05:33 44.18423 10.11022 36103 ft 423 kts 351°
2026-04-18 05:34 44.24242 10.09703 36111 ft 424 kts 351°
2026-04-18 05:34 44.30055 10.08382 36119 ft 424 kts 351°
2026-04-18 05:35 44.35839 10.07065 36126 ft 425 kts 351°
2026-04-18 05:35 44.41696 10.05728 36124 ft 425 kts 351°
2026-04-18 05:36 44.47504 10.04401 36133 ft 425 kts 351°
2026-04-18 05:36 44.53323 10.03068 36142 ft 426 kts 351°
2026-04-18 05:37 44.59150 10.01731 36135 ft 426 kts 351°
2026-04-18 05:37 44.64963 10.00395 36132 ft 426 kts 350°
2026-04-18 05:38 44.70804 9.99050 36116 ft 427 kts 350°
2026-04-18 05:38 44.76678 9.97693 36111 ft 427 kts 350°
2026-04-18 05:39 44.82524 9.96339 36112 ft 427 kts 350°
2026-04-18 05:39 44.88363 9.94985 36112 ft 427 kts 350°
2026-04-18 05:40 44.94243 9.93619 36118 ft 428 kts 350°
2026-04-18 05:40 45.00108 9.92255 36120 ft 429 kts 350°
2026-04-18 05:41 45.05976 9.90885 36118 ft 429 kts 350°
2026-04-18 05:41 45.11841 9.89514 36121 ft 429 kts 350°
2026-04-18 05:42 45.17739 9.88133 36120 ft 428 kts 350°
2026-04-18 05:42 45.23610 9.86755 36126 ft 428 kts 350°
2026-04-18 05:43 45.29450 9.85382 36132 ft 429 kts 350°
2026-04-18 05:43 45.35345 9.83992 36133 ft 429 kts 350°
2026-04-18 05:44 45.41190 9.82611 36139 ft 429 kts 350°
2026-04-18 05:44 45.47088 9.81215 36135 ft 429 kts 350°
2026-04-18 05:45 45.52959 9.79823 36139 ft 429 kts 350°
2026-04-18 05:45 45.58829 9.78428 36147 ft 429 kts 350°
2026-04-18 05:46 45.64730 9.76993 36151 ft 429 kts 348°
2026-04-18 05:46 45.70548 9.75159 36153 ft 429 kts 346°
2026-04-18 05:47 45.76340 9.73242 36155 ft 429 kts 346°
2026-04-18 05:47 45.82147 9.71320 36160 ft 430 kts 346°
2026-04-18 05:48 45.87965 9.69394 36168 ft 430 kts 346°
2026-04-18 05:48 45.93792 9.67464 36186 ft 430 kts 346°
2026-04-18 05:49 45.99598 9.65538 36194 ft 430 kts 346°
2026-04-18 05:49 46.05388 9.63613 36208 ft 430 kts 346°
2026-04-18 05:50 46.11209 9.61672 36212 ft 430 kts 346°
2026-04-18 05:50 46.17047 9.59722 36211 ft 430 kts 346°
2026-04-18 05:51 46.22878 9.57770 36219 ft 430 kts 346°
2026-04-18 05:51 46.28692 9.55819 36218 ft 431 kts 346°
2026-04-18 05:52 46.34542 9.53921 36228 ft 431 kts 347°
2026-04-18 05:52 46.40363 9.52123 36229 ft 431 kts 347°
2026-04-18 05:53 46.46236 9.50302 36232 ft 431 kts 347°
2026-04-18 05:53 46.52081 9.48480 36240 ft 431 kts 347°
2026-04-18 05:54 46.57944 9.46643 36238 ft 432 kts 347°
2026-04-18 05:54 46.63781 9.44812 36228 ft 432 kts 347°
2026-04-18 05:55 46.69658 9.42964 36224 ft 432 kts 347°
2026-04-18 05:55 46.75551 9.41106 36221 ft 433 kts 347°
2026-04-18 05:56 46.81390 9.39261 36218 ft 433 kts 347°
2026-04-18 05:56 46.87298 9.37391 36227 ft 433 kts 346°
2026-04-18 05:57 46.96097 9.34599 36227 ft 432 kts 346°
2026-04-18 05:58 47.01975 9.32726 36216 ft 433 kts 346°
2026-04-18 05:58 47.07845 9.30851 36213 ft 434 kts 346°
2026-04-18 05:59 47.13719 9.28973 36216 ft 434 kts 346°
2026-04-18 05:59 47.19628 9.27079 36216 ft 435 kts 346°
2026-04-18 06:00 47.25506 9.25191 36217 ft 434 kts 345°
2026-04-18 06:00 47.31406 9.23292 36217 ft 433 kts 345°
2026-04-18 06:01 47.37279 9.21397 36209 ft 434 kts 345°
2026-04-18 06:01 47.43158 9.19493 36208 ft 435 kts 345°
2026-04-18 06:02 47.49039 9.17587 36203 ft 435 kts 345°
2026-04-18 06:02 47.54969 9.15658 36197 ft 435 kts 345°
2026-04-18 06:03 47.60870 9.13737 36196 ft 436 kts 345°
2026-04-18 06:03 47.66793 9.11805 36198 ft 436 kts 345°
2026-04-18 06:04 47.72708 9.09869 36197 ft 437 kts 345°
2026-04-18 06:04 47.78627 9.07927 36188 ft 437 kts 345°
2026-04-18 06:05 47.84564 9.05974 36186 ft 437 kts 345°
2026-04-18 06:05 47.90460 9.04031 36189 ft 437 kts 345°
2026-04-18 06:06 47.96394 9.02072 36186 ft 438 kts 344°
2026-04-18 06:06 48.02346 9.00101 36184 ft 439 kts 344°
2026-04-18 06:07 48.08295 8.98129 36188 ft 439 kts 345°
2026-04-18 06:07 48.14310 8.96695 36187 ft 441 kts 351°
2026-04-18 06:08 48.20469 8.96240 36014 ft 444 kts 357°
2026-04-18 06:08 48.23541 8.96397 35783 ft 443 kts
2026-04-18 06:08 48.26566 8.96775 35555 ft 442 kts
2026-04-18 06:08 48.29626 8.97240 35321 ft 440 kts
2026-04-18 06:09 48.32641 8.97716 35089 ft 438 kts
2026-04-18 06:09 48.35693 8.98196 34854 ft 438 kts
2026-04-18 06:09 48.38685 8.98660 34507 ft 439 kts
2026-04-18 06:09 48.41748 8.99133 33933 ft 440 kts
2026-04-18 06:10 48.44761 8.99594 33268 ft 441 kts
2026-04-18 06:10 48.47807 9.00060 32543 ft 442 kts
2026-04-18 06:10 48.50858 9.00524 31796 ft 443 kts
2026-04-18 06:10 48.53936 9.00996 31026 ft 444 kts
2026-04-18 06:11 48.57003 9.01466 30241 ft 445 kts
2026-04-18 06:11 48.60039 9.01931 29461 ft 446 kts
2026-04-18 06:11 48.63114 9.02455 28656 ft 448 kts
2026-04-18 06:11 48.66204 9.03136 27837 ft 449 kts
2026-04-18 06:12 48.69266 9.03863 27283 ft 444 kts
2026-04-18 06:12 48.72309 9.04599 26732 ft 442 kts
2026-04-18 06:12 48.75320 9.05329 26121 ft 438 kts
2026-04-18 06:12 48.78293 9.06046 25565 ft 432 kts
2026-04-18 06:13 48.81250 9.06757 25026 ft 427 kts
2026-04-18 06:13 48.84131 9.07448 24500 ft 422 kts
2026-04-18 06:13 48.87032 9.08138 23978 ft 417 kts
2026-04-18 06:13 48.89851 9.08665 23467 ft 411 kts
2026-04-18 06:14 48.92699 9.09089 22950 ft 407 kts
2026-04-18 06:14 48.95484 9.09479 22442 ft 403 kts
2026-04-18 06:14 48.98267 9.09868 21926 ft 400 kts
2026-04-18 06:14 49.01028 9.10258 21414 ft 397 kts
2026-04-18 06:15 49.03738 9.10642 20906 ft 394 kts
2026-04-18 06:15 49.06443 9.11026 20396 ft 392 kts
2026-04-18 06:15 49.09174 9.11416 19878 ft 389 kts
2026-04-18 06:15 49.11819 9.11796 19375 ft 388 kts
2026-04-18 06:16 49.14492 9.12178 18858 ft 386 kts
2026-04-18 06:16 49.17170 9.12563 18342 ft 384 kts
2026-04-18 06:16 49.19841 9.12946 17825 ft 382 kts
2026-04-18 06:16 49.22451 9.13318 17313 ft 381 kts
2026-04-18 06:17 49.25076 9.13695 16801 ft 379 kts
2026-04-18 06:17 49.27672 9.14148 16285 ft 378 kts
2026-04-18 06:17 49.30252 9.14838 15829 ft 375 kts
2026-04-18 06:17 49.32816 9.15727 15578 ft 375 kts 11°
2026-04-18 06:18 49.35319 9.16646 15329 ft 374 kts 11°
2026-04-18 06:18 49.37867 9.17587 15077 ft 373 kts 11°
2026-04-18 06:18 49.40362 9.18503 14832 ft 371 kts 11°
2026-04-18 06:18 49.42888 9.19424 14583 ft 370 kts 11°
2026-04-18 06:19 49.45382 9.20331 14331 ft 368 kts 11°
2026-04-18 06:19 49.47845 9.21226 14085 ft 367 kts 11°
2026-04-18 06:19 49.50333 9.22130 13837 ft 366 kts 11°
2026-04-18 06:19 49.52819 9.23031 13590 ft 365 kts 11°
2026-04-18 06:20 49.55257 9.23916 13346 ft 363 kts 11°
2026-04-18 06:20 49.57708 9.24796 13101 ft 361 kts 10°
2026-04-18 06:20 49.60191 9.25015 12844 ft 357 kts 353°
2026-04-18 06:20 49.62658 9.24422 12599 ft 355 kts 347°
2026-04-18 06:21 49.65058 9.23712 12329 ft 352 kts 348°
2026-04-18 06:21 49.67426 9.23046 12132 ft 341 kts 348°
2026-04-18 06:21 49.69734 9.22444 11940 ft 330 kts 349°
2026-04-18 06:21 49.71959 9.21896 11758 ft 320 kts 349°
2026-04-18 06:22 49.74141 9.21381 11556 ft 308 kts 349°
2026-04-18 06:22 49.76186 9.20907 11324 ft 295 kts 350°
2026-04-18 06:22 49.78189 9.20449 11086 ft 284 kts 350°
2026-04-18 06:22 49.80129 9.20007 10784 ft 280 kts 350°
2026-04-18 06:23 49.82047 9.19569 10441 ft 278 kts 350°
2026-04-18 06:23 49.83955 9.19133 10086 ft 278 kts 351°
2026-04-18 06:23 49.85846 9.18703 9886 ft 270 kts 351°
2026-04-18 06:23 49.87688 9.18287 9601 ft 265 kts 351°
2026-04-18 06:24 49.89507 9.17873 9223 ft 265 kts 351°
2026-04-18 06:24 49.91318 9.17461 8894 ft 263 kts 351°
2026-04-18 06:24 49.93125 9.17048 8578 ft 262 kts 350°
2026-04-18 06:24 49.94900 9.16491 8335 ft 257 kts 345°
2026-04-18 06:25 49.96584 9.15708 8159 ft 249 kts 339°
2026-04-18 06:25 49.98187 9.14813 7858 ft 247 kts 338°
2026-04-18 06:25 49.99797 9.13891 7471 ft 246 kts 338°
2026-04-18 06:25 50.01411 9.12967 7157 ft 246 kts 339°
2026-04-18 06:26 50.03013 9.12057 6879 ft 243 kts 339°
2026-04-18 06:26 50.04600 9.11156 6590 ft 242 kts 339°
2026-04-18 06:26 50.06180 9.10259 6286 ft 241 kts 339°
2026-04-18 06:26 50.07734 9.09378 5949 ft 239 kts 339°
2026-04-18 06:27 50.09269 9.08507 5675 ft 231 kts 338°
2026-04-18 06:27 50.10634 9.07270 5276 ft 227 kts 314°
2026-04-18 06:27 50.11516 9.05277 4850 ft 226 kts 290°
2026-04-18 06:27 50.11886 9.02928 4505 ft 225 kts 279°
2026-04-18 06:28 50.12129 9.00553 4322 ft 219 kts 278°
2026-04-18 06:28 50.12366 8.98221 4200 ft 211 kts 278°
2026-04-18 06:28 50.12578 8.96054 4103 ft 199 kts 275°
2026-04-18 06:28 50.12555 8.93883 3968 ft 199 kts 263°
2026-04-18 06:29 50.12263 8.91759 3967 ft 200 kts 254°
2026-04-18 06:29 50.11875 8.89696 3963 ft 200 kts 253°
2026-04-18 06:29 50.11441 8.87622 3961 ft 200 kts 251°
2026-04-18 06:29 50.10981 8.85582 3912 ft 200 kts 250°
2026-04-18 06:30 50.10502 8.83547 3689 ft 200 kts 249°
2026-04-18 06:30 50.10014 8.81524 3418 ft 198 kts 249°
2026-04-18 06:30 50.09532 8.79538 3154 ft 193 kts 249°
2026-04-18 06:30 50.09069 8.77633 2900 ft 189 kts 249°
2026-04-18 06:31 50.08609 8.75736 2654 ft 184 kts 249°
2026-04-18 06:31 50.08173 8.73936 2405 ft 173 kts 249°
2026-04-18 06:31 50.07763 8.72237 2199 ft 159 kts 250°
2026-04-18 06:31 50.07388 8.70684 1985 ft 149 kts 250°
2026-04-18 06:32 50.07033 8.69207 1784 ft 142 kts 250°
2026-04-18 06:32 50.06685 8.67760 1603 ft 142 kts 250°
2026-04-18 06:32 50.06343 8.66338 1426 ft 142 kts 250°
2026-04-18 06:32 50.06000 8.64902 1243 ft 141 kts 249°
2026-04-18 06:33 50.05653 8.63473 1045 ft 140 kts 249°
2026-04-18 06:33 50.05308 8.62035 851 ft 140 kts 249°
2026-04-18 06:33 50.04970 8.60629 634 ft 139 kts 250°
2026-04-18 06:33 50.04637 8.59212 471 ft 139 kts 250°
2026-04-18 06:34 50.04301 8.57800 370 ft 134 kts 249°
2026-04-18 06:34 50.04018 8.56624 353 ft 91 kts 249°
2026-04-18 06:34 50.03855 8.55944 349 ft 49 kts 249°
2026-04-18 06:34 50.03790 8.55652 348 ft 21 kts 266°
2026-04-18 06:35 50.03814 8.55545 347 ft 6 kts 325°
2026-04-18 06:35 50.03855 8.55510 348 ft 7 kts 337°
2026-04-18 06:35 50.03904 8.55482 348 ft 7 kts 348°
2026-04-18 06:35 50.03975 8.55462 348 ft 12 kts 350°
2026-04-18 06:36 50.04057 8.55420 349 ft 12 kts 339°
2026-04-18 06:36 50.04126 8.55465 350 ft 12 kts 64°
2026-04-18 06:36 50.04157 8.55592 350 ft 12 kts 70°
2026-04-18 06:36 50.04186 8.55717 351 ft 4 kts 70°
2026-04-18 06:37 50.04199 8.55771 352 ft 3 kts 70°
2026-04-18 06:37 50.04199 8.55772 352 ft 0 kts 70°
2026-04-18 06:37 50.04216 8.55843 352 ft 15 kts 70°
2026-04-18 06:38 50.04255 8.56005 353 ft 17 kts 70°
2026-04-18 06:38 50.04306 8.56216 354 ft 21 kts 70°
2026-04-18 06:38 50.04357 8.56429 355 ft 20 kts 70°
2026-04-18 06:38 50.04404 8.56630 356 ft 19 kts 70°
2026-04-18 06:39 50.04445 8.56802 358 ft 15 kts 69°
2026-04-18 06:39 50.04528 8.56883 358 ft 13 kts 13°
2026-04-18 06:39 50.04602 8.56909 359 ft 5 kts 13°
2026-04-18 06:39 50.04629 8.56909 359 ft 3 kts 323°
2026-04-18 06:40 50.04635 8.56888 359 ft 0 kts 282°
2026-04-18 06:40 50.04639 8.56866 359 ft 3 kts 290°
2026-04-18 06:40 50.04646 8.56840 359 ft 1 kts 293°
2026-04-18 06:40 50.04652 8.56819 359 ft 0 kts 295°